This is the latest recevied weather packets stored in our database for station/object WB4ZUT. If no packets are shown the sender has not sent any weather packets the latest 1 day(s).
| Time | Temp. | Humidity | Pressure | Rain* | Wind** | Luminosity | Snow |
|---|---|---|---|---|---|---|---|
| 1778013809 | 16.11° C | 99% | 1007.2 hPa | 7.11 mm | 0.89 m/s, 83° | 13 W/m² | - |
| 1778013506 | 16.11° C | 99% | 1007.1 hPa | 6.1 mm | 0 m/s | 15 W/m² | - |
| 1778013202 | 16.11° C | 98% | 1007.1 hPa | 3.05 mm | 0 m/s | 19 W/m² | - |
| 1778012898 | 16.67° C | 98% | 1007.1 hPa | 3.05 mm | 0 m/s | 28 W/m² | - |
| 1778012595 | 16.67° C | 99% | 1007 hPa | 3.05 mm | 0 m/s | 69 W/m² | - |
| 1778012291 | 16.67° C | 98% | 1007.1 hPa | 1.27 mm | 0 m/s | 60 W/m² | - |
| 1778011989 | 16.67° C | 98% | 1007.1 hPa | 0 mm | 0.89 m/s, 92° | 29 W/m² | - |
| 1778011687 | 16.67° C | 98% | 1007.4 hPa | 0 mm | 0.45 m/s, 97° | 33 W/m² | - |
| 1778011384 | 16.67° C | 98% | 1007.2 hPa | 0 mm | 0.45 m/s, 215° | 44 W/m² | - |
| 1778011079 | 16.67° C | 98% | 1007.5 hPa | 0 mm | 0.45 m/s, 99° | 46 W/m² | - |
| 1778010777 | 16.67° C | 99% | 1007.4 hPa | 0 mm | 0.89 m/s, 232° | 50 W/m² | - |
| 1778010474 | 16.67° C | 99% | 1007.5 hPa | 0 mm | 0 m/s | 55 W/m² | - |
| 1778010171 | 16.67° C | 99% | 1007.5 hPa | 0 mm | 0 m/s | 61 W/m² | - |
| 1778009866 | 16.67° C | 99% | 1007.6 hPa | 0 mm | 0.45 m/s, 83° | 76 W/m² | - |
| 1778009564 | 16.67° C | 99% | 1007.5 hPa | 0 mm | 0 m/s | 73 W/m² | - |
| 1778009262 | 16.67° C | 99% | 1007.6 hPa | 0 mm | 0 m/s | 75 W/m² | - |
| 1778008959 | 16.67° C | 99% | 1007.8 hPa | 0 mm | 0.45 m/s, 110° | 109 W/m² | - |
| 1778008657 | 16.67° C | 99% | 1007.8 hPa | 0 mm | 0.45 m/s, 90° | 83 W/m² | - |
| 1778008356 | 16.67° C | 99% | 1008 hPa | 0 mm | 0.89 m/s, 66° | 65 W/m² | - |
| 1778008051 | 16.67° C | 99% | 1008.1 hPa | 0 mm | 0.45 m/s, 71° | 78 W/m² | - |
| 1778007751 | 16.67° C | 99% | 1008.1 hPa | 0 mm | 0.45 m/s, 41° | 76 W/m² | - |
| 1778007448 | 16.67° C | 99% | 1008.2 hPa | 0 mm | 0.89 m/s, 96° | 100 W/m² | - |
| 1778007145 | 16.67° C | 99% | 1008.1 hPa | 0 mm | 1.34 m/s, 305° | 84 W/m² | - |
| 1778006841 | 16.67° C | 99% | 1008.1 hPa | 0 mm | 0.45 m/s, 73° | 95 W/m² | - |
| 1778006538 | 16.67° C | 99% | 1008.3 hPa | 0 mm | 0.45 m/s, 70° | 82 W/m² | - |
* Rain latest hour (hover to see other rain measurements)
** Current wind speed in m/s (hover to see current wind gust speed)